[[{"header":{"parameterUnit":"m.s-1","parameterCategory":2,"la1":30.2991,"la2":30.254,"lo1":-89.0895,"lo2":-89.0444,"dy":0.0017,"dx":0.0017,"nx":28,"ny":28,"refTime":"2024-03-12T09:00:00:Z","depth":"0","parameterNumber":2,"parameterNumberName":"U-component_of_CURRENTS"},"data":[0,0,0,0,0,0,0,0,0,0,0,0,0,0,0,0,0,0,0,0,0,0,0,0,0,0,0,0,0,0,0,0,0,0,0,0,0,0,0,0,0,0,0,0,0,0,0,0,0,0,0,0,0,0,0,0,0,0,0.1356,0.1356,0,0.1329,0.1329,0.1329,0.1333,0.1334,0.1334,0.1334,0.1421,0.1423,0.1425,0,0,0,0,0,0,0,0,0,0,0,0,0,0.1479,0.1477,0.1357,0.1356,0.1356,0.1329,0.1329,0.1329,0.1333,0.1334,0.1334,0.1335,0.142,0.1423,0.1425,0,0,0,0,0,0,0,0,0,0,0,0,0,0.1438,0.1476,0.1357,0.1354,0.1353,0.1329,0.1329,0.1329,0.1333,0.1334,0.1334,0.1335,0.1419,0.1422,0.1425,0.1434,0,0,0.1434,0.1436,0,0,0,0,0,0,0,0,0.144,0.1433,0.1354,0.1354,0.1353,0.1334,0.1404,0.1369,0.1333,0.1342,0.1334,0.1335,0.1401,0.1405,0.14,0.1438,0.1442,0.1435,0.1436,0.1438,0.1439,0,0,0,0,0,0,0,0.1443,0.1435,0.1347,0.1354,0.1353,0.1376,0.1371,0.1397,0.1373,0.1342,0.1341,0.1336,0.1402,0.1397,0.1402,0.1443,0.1435,0.1437,0.1439,0.144,0.1553,0.1554,0,0,0,0,0,0,0.1438,0.1437,0.1348,0.1346,0.1397,0.1373,0.1367,0.1341,0.137,0.1373,0.1335,0.1336,0.1391,0.1399,0.1405,0.1479,0.1438,0.1441,0.1442,0.1552,0.1553,0.1555,0,0,0,0,0,0,0.1441,0.143,0.1349,0.1392,0.1383,0.137,0.1341,0.134,0.1336,0.1363,0.137,0.1333,0.1392,0.1401,0.1431,0.148,0.1442,0.1445,0.1551,0.1552,0.1554,0.1588,0,0,0,0,0,0,0.1444,0.143,0.1421,0.139,0.138,0.1353,0.134,0.1339,0.1331,0.1332,0.1363,0.1371,0.1393,0.1426,0.1434,0.1484,0.1447,0.1549,0.1551,0.1554,0.1585,0.159,0.1595,0,0,0,0,0,0.1448,0.1446,0.1421,0.1411,0.1363,0.1354,0.1352,0.1346,0.133,0.1341,0.135,0.1371,0.1447,0.1429,0.1438,0.149,0.1548,0.1551,0.1553,0.1583,0.1589,0.1595,0,0,0,0,0,0,0.1511,0.1445,0.1417,0.1397,0.1379,0.1355,0.1369,0.1343,0.1354,0.136,0.1372,0.1382,0.1427,0.1447,0.1426,0.1529,0.1507,0.1512,0.1527,0.1533,0.1538,0.1639,0.1449,0,0,0,0,0,0.1512,0.1486,0.1435,0.1425,0.1415,0.1384,0.138,0.1368,0.1365,0.1369,0.1382,0.141,0.1444,0.1476,0.1502,0.1554,0.1593,0.1597,0.1602,0.1607,0.1695,0.176,0.178,0.1564,0.1564,0.1564,0,0,0.1537,0.1496,0.1484,0.1436,0.1423,0.145,0.1385,0.1384,0.1425,0.138,0.144,0.1418,0.1455,0.1512,0.1538,0.1539,0.1673,0.161,0.1613,0.1702,0.1766,0.1787,0.1806,0.1566,0.1565,0.1565,0,0,0.1608,0.1534,0.1555,0.1541,0.1514,0.1495,0.1492,0.1461,0.1466,0.1497,0.1476,0.1501,0.1537,0.1589,0.1618,0.1674,0.1682,0.1651,0.1782,0.1841,0.1861,0.1879,0.1891,0.1911,0.1671,0.1672,0.1672,0,0.1662,0.1648,0.1568,0.16,0.1605,0.1522,0.1573,0.1572,0.1558,0.158,0.1537,0.1599,0.161,0.1714,0.1732,0.1699,0.17,0.1748,0.1851,0.187,0.1888,0.1898,0.1918,0.1674,0.1673,0.1673,0.1673,0,0.1751,0.1749,0.1764,0.1768,0.1769,0.1784,0.1764,0.1772,0.1745,0.1742,0.1795,0.1784,0.1837,0.182,0.1806,0.1927,0.187,0.1829,0.1839,0.1913,0.1916,0.1937,0.1676,0.1676,0.1675,0.1675,0,0,0.1866,0.1835,0.1846,0.1858,0.1847,0.1852,0.1926,0.1957,0.2,0.199,0.2062,0.2106,0.2058,0.2092,0.2041,0.2106,0.2191,0.2031,0.2033,0.2053,0.2281,0.2086,0.2089,0.214,0.2145,0.215,0.2207,0,0.1974,0.204,0.2004,0.2083,0.2108,0.2066,0.2132,0.2152,0.2149,0.2189,0.2195,0.2225,0.217,0.2158,0.2226,0.2187,0.226,0.2179,0.2206,0.2208,0.2033,0.2114,0.191,0.1933,0.2228,0.2232,0.2234,0,0.2083,0.2102,0.2185,0.2198,0.2209,0.2249,0.2301,0.2346,0.2393,0.2393,0.244,0.2397,0.2485,0.2402,0.2486,0.2417,0.2399,0.2375,0.2375,0.2227,0.2056,0.1921,0.196,0.1856,0.2267,0.2264,0.2262,0,0.2172,0.2226,0.2279,0.2287,0.2308,0.2347,0.2363,0.241,0.2446,0.2508,0.2523,0.2596,0.2592,0.2638,0.2563,0.2534,0.2618,0.2562,0.239,0.2372,0.2237,0.2198,0.2206,0.2689,0.2689,0.2688,0.2688,0,0.2275,0.2323,0.2311,0.2337,0.2412,0.2401,0.2479,0.2514,0.2557,0.2599,0.2611,0.2638,0.265,0.2652,0.2632,0.2553,0.2676,0.2471,0.2405,0.2228,0.219,0.2121,0.2091,0.269,0.269,0.269,0.2689,0,0.2367,0.2357,0.2417,0.2438,0.2446,0.2497,0.2525,0.2567,0.2602,0.2659,0.2676,0.2688,0.2663,0.2637,0.266,0.2588,0.2448,0.2508,0.2264,0.2169,0.1892,0.187,0.1823,0.1798,0.2368,0.2364,0.236,0,0.242,0.2455,0.2484,0.2507,0.2512,0.256,0.2582,0.2604,0.2628,0.2672,0.2691,0.2671,0.2617,0.2541,0.2403,0.2322,0.229,0.2105,0.2052,0.1899,0.183,0.1775,0.1758,0.1866,0.1859,0.1853,0.1848,0,0.2534,0.2531,0.2565,0.259,0.2608,0.2625,0.2641,0.2654,0.2662,0.2677,0.2644,0.2599,0.245,0.2218,0.2063,0.2001,0.1935,0.1978,0.1919,0.1549,0.1403,0.1334,0.1778,0.1796,0.1801,0.1805,0.1808,0.181,0.2612,0.2643,0.2649,0.2663,0.268,0.2639,0.2595,0.2584,0.2564,0.248,0.2545,0.2352,0.2084,0.1796,0.1726,0.14,0.1543,0.1314,0.1332,0.1318,0.1205,0.1505,0.1371,0.1373,0.1376,0.1378,0.138,0,0.2663,0.2668,0.2708,0.2675,0.2638,0.2639,0.2585,0.2477,0.2363,0.2292,0.2215,0.1818,0.153,0.1291,0.0916,0.0781,0.0789,0.0742,0.0672,0.0723,0.1062,0.0948,0.0593,0.0593,0.0593,0.0593,0.0594,0.0594,0.2691,0.2701,0.2681,0.2605,0.2565,0.2423,0.234,0.22,0.2079,0.1764,0.1475,0.1341,0.1014,0.0614,0.0325,0.0312,0.0317,0.0188,0.0343,0.0585,0.0641,0.0696,0.0583,0.0157,0.0157,-0.0069,-0.0072,-0.0073]},{"header":{"parameterUnit":"m.s-1","parameterCategory":2,"la1":30.2991,"la2":30.254,"lo1":-89.0895,"lo2":-89.0444,"dy":0.0017,"dx":0.0017,"nx":28,"ny":28,"refTime":"2024-03-12T09:00:00:Z","depth":"0","parameterNumber":3,"parameterNumberName":"V-component_of_CURRENTS"},"data":[0,0,0,0,0,0,0,0,0,0,0,0,0,0,0,0,0,0,0,0,0,0,0,0,0,0,0,0,0,0,0,0,0,0,0,0,0,0,0,0,0,0,0,0,0,0,0,0,0,0,0,0,0,0,0,0,0,0,0.0493,0.0494,0,0.0523,0.0523,0.0523,0.053,0.053,0.053,0.053,0.0559,0.056,0.0561,0,0,0,0,0,0,0,0,0,0,0,0,0,0.0439,0.044,0.0493,0.0494,0.0494,0.0523,0.0523,0.0523,0.053,0.053,0.053,0.053,0.0559,0.056,0.0561,0,0,0,0,0,0,0,0,0,0,0,0,0,0.0465,0.0441,0.0493,0.0501,0.0502,0.0523,0.0523,0.0523,0.053,0.053,0.053,0.0529,0.0559,0.056,0.0561,0.0575,0,0,0.0566,0.0566,0,0,0,0,0,0,0,0,0.0463,0.0467,0.05,0.0501,0.0502,0.0523,0.0515,0.0541,0.053,0.0519,0.053,0.0529,0.0548,0.055,0.0555,0.0576,0.0578,0.0566,0.0567,0.0567,0.0568,0,0,0,0,0,0,0,0.0462,0.0465,0.0505,0.05,0.0502,0.0502,0.0505,0.052,0.0534,0.052,0.0521,0.0525,0.0548,0.0554,0.0556,0.0578,0.0566,0.0567,0.0568,0.0568,0.0632,0.0633,0,0,0,0,0,0,0.0459,0.0464,0.0504,0.0506,0.0482,0.0503,0.0507,0.0516,0.0534,0.0537,0.0525,0.0525,0.0552,0.0554,0.0557,0.0607,0.0567,0.0569,0.0569,0.0631,0.0632,0.0633,0,0,0,0,0,0,0.0458,0.0463,0.0503,0.0485,0.049,0.0505,0.0515,0.0517,0.0524,0.0538,0.054,0.053,0.0552,0.0555,0.0579,0.0607,0.0569,0.0571,0.063,0.0632,0.0633,0.0686,0,0,0,0,0,0,0.0457,0.0462,0.0467,0.0485,0.0491,0.0522,0.0515,0.0518,0.0527,0.0527,0.0543,0.0545,0.0552,0.0577,0.0581,0.0608,0.0572,0.0629,0.0631,0.0632,0.0683,0.0689,0.0694,0,0,0,0,0,0.0455,0.0467,0.0467,0.0472,0.0498,0.0523,0.0526,0.0534,0.0527,0.0538,0.0548,0.0545,0.059,0.0579,0.0583,0.0612,0.0628,0.063,0.0632,0.0681,0.0688,0.0694,0,0,0,0,0,0,0.0441,0.0469,0.047,0.0488,0.0506,0.0524,0.0537,0.0536,0.0551,0.0555,0.0557,0.0561,0.0594,0.0591,0.0579,0.0633,0.0608,0.0611,0.0643,0.065,0.0655,0.07,0.0573,0,0,0,0,0,0.0441,0.0463,0.0481,0.0497,0.0509,0.0521,0.053,0.0538,0.0554,0.056,0.057,0.0583,0.0605,0.0617,0.0634,0.0662,0.066,0.0681,0.0686,0.0691,0.0729,0.0745,0.0756,0.0639,0.0639,0.0639,0,0,0.0441,0.0459,0.0471,0.0497,0.0513,0.0553,0.0527,0.0551,0.0587,0.0562,0.061,0.0604,0.0616,0.0653,0.0667,0.0655,0.0715,0.0693,0.0698,0.0734,0.0748,0.076,0.077,0.0641,0.064,0.064,0,0,0.0475,0.047,0.0512,0.0532,0.0561,0.0571,0.0578,0.06,0.0613,0.0649,0.0643,0.0664,0.0683,0.0711,0.0724,0.077,0.0743,0.0753,0.0821,0.0835,0.0845,0.0854,0.0833,0.084,0.0756,0.0756,0.0756,0,0.0474,0.0531,0.0525,0.0575,0.0603,0.0584,0.064,0.0652,0.0678,0.0702,0.0674,0.0727,0.0727,0.0794,0.0805,0.0788,0.0769,0.0794,0.0844,0.0853,0.0861,0.0838,0.0845,0.0759,0.0759,0.0758,0.0758,0,0.0557,0.0595,0.062,0.0682,0.0704,0.0743,0.0763,0.0786,0.0785,0.0796,0.0845,0.0842,0.0877,0.0867,0.0853,0.0914,0.0868,0.0847,0.083,0.0877,0.0847,0.0854,0.0763,0.0762,0.0761,0.076,0,0,0.0582,0.0664,0.0675,0.0715,0.0765,0.0788,0.0855,0.0908,0.0949,0.0955,0.1016,0.1039,0.1015,0.103,0.1003,0.1014,0.1035,0.0955,0.0954,0.094,0.1033,0.0996,0.0998,0.1007,0.101,0.1012,0.0975,0,0.0654,0.0754,0.0787,0.0875,0.0923,0.0939,0.0998,0.1035,0.1051,0.1095,0.1097,0.1129,0.1081,0.1084,0.1096,0.1059,0.106,0.1046,0.0987,0.0986,0.0953,0.1009,0.1018,0.0988,0.0981,0.0982,0.0983,0,0.0736,0.0791,0.0888,0.0968,0.0992,0.1037,0.1116,0.1168,0.1222,0.1237,0.1272,0.1251,0.1287,0.122,0.1212,0.1195,0.1131,0.1089,0.1086,0.1052,0.0964,0.0947,0.0999,0.1019,0.0993,0.0992,0.0991,0,0.075,0.086,0.0931,0.0961,0.1049,0.1096,0.1141,0.1205,0.1245,0.1317,0.1339,0.1374,0.1377,0.1341,0.1256,0.1228,0.1222,0.117,0.1079,0.1073,0.1077,0.1069,0.1158,0.117,0.117,0.117,0.117,0,0.0804,0.0861,0.0935,0.0973,0.1048,0.111,0.1186,0.1243,0.1315,0.137,0.1395,0.1438,0.1404,0.1384,0.1303,0.1222,0.1259,0.1122,0.1084,0.109,0.1083,0.1096,0.1098,0.1169,0.1169,0.1169,0.1169,0,0.0797,0.0855,0.0932,0.1027,0.1051,0.1098,0.1184,0.124,0.1314,0.1391,0.1412,0.1477,0.1472,0.1414,0.1356,0.1273,0.121,0.1153,0.1147,0.1111,0.1041,0.1044,0.1104,0.1125,0.1061,0.106,0.1059,0,0.08,0.0838,0.0936,0.0969,0.1008,0.1077,0.1128,0.1221,0.1286,0.1413,0.1456,0.1486,0.1527,0.1441,0.1326,0.1206,0.1192,0.1105,0.1075,0.1076,0.1051,0.1063,0.1078,0.1077,0.1077,0.1076,0.1076,0,0.0795,0.0825,0.0882,0.0947,0.1001,0.1072,0.1158,0.1204,0.1332,0.1409,0.153,0.1578,0.153,0.1459,0.1298,0.1204,0.115,0.109,0.1117,0.1116,0.1115,0.1102,0.1032,0.1073,0.1073,0.1073,0.1074,0.1074,0.0773,0.0799,0.0867,0.0922,0.0991,0.1079,0.1134,0.124,0.1347,0.1502,0.1567,0.1642,0.1556,0.1366,0.1273,0.1107,0.1116,0.1048,0.1058,0.1074,0.1103,0.1014,0.0996,0.0996,0.0996,0.0996,0.0996,0,0.0748,0.0787,0.0839,0.0926,0.0994,0.1045,0.1165,0.1234,0.1361,0.1507,0.1628,0.1586,0.151,0.1371,0.1166,0.1098,0.1093,0.1069,0.1117,0.1137,0.108,0.1091,0.1065,0.1065,0.1065,0.1065,0.1065,0.1065,0.0742,0.0779,0.0808,0.0904,0.0971,0.1069,0.1138,0.1253,0.136,0.1486,0.1507,0.1537,0.143,0.1295,0.1185,0.1147,0.1175,0.114,0.1162,0.114,0.114,0.1139,0.1154,0.1142,0.1142,0.124,0.1241,0.1242]}],[{"header":{"parameterUnit":"m.s-1","parameterCategory":2,"la1":30.2991,"la2":30.254,"lo1":-89.0895,"lo2":-89.0444,"dy":0.0017,"dx":0.0017,"nx":28,"ny":28,"refTime":"2024-03-12T09:00:00:Z","depth":"2","parameterNumber":2,"parameterNumberName":"U-component_of_CURRENTS"},"data":[0,0,0,0,0,0,0,0,0,0,0,0,0,0,0,0,0,0,0,0,0,0,0,0,0,0,0,0,0,0,0,0,0,0,0,0,0,0,0,0,0,0,0,0,0,0,0,0,0,0,0,0,0,0,0,0,0,0,0.1206,0.1205,0,0.1195,0.1195,0.1194,0.1202,0.1202,0.1202,0.1203,0.1262,0.1263,0.1265,0,0,0,0,0,0,0,0,0,0,0,0,0,0.1269,0.1268,0.1206,0.1205,0.1205,0.1195,0.1195,0.1194,0.1202,0.1202,0.1202,0.1203,0.1262,0.1263,0.1265,0,0,0,0,0,0,0,0,0,0,0,0,0,0.1249,0.1268,0.1206,0.1207,0.1207,0.1195,0.1195,0.1194,0.1202,0.1202,0.1203,0.1203,0.1261,0.1263,0.1265,0.127,0,0,0.1271,0.1272,0,0,0,0,0,0,0,0,0.125,0.1247,0.1207,0.1207,0.1207,0.1199,0.1239,0.1223,0.1202,0.1205,0.1203,0.1203,0.1247,0.125,0.1247,0.1272,0.1275,0.1271,0.1273,0.1274,0.1274,0,0,0,0,0,0,0,0.1251,0.1247,0.1202,0.1207,0.1207,0.1221,0.1218,0.1236,0.1226,0.1204,0.1205,0.1202,0.1248,0.1245,0.1249,0.1276,0.1271,0.1273,0.1274,0.1275,0.136,0.1361,0,0,0,0,0,0,0.1248,0.1248,0.1202,0.1202,0.1229,0.1219,0.1216,0.1202,0.1224,0.1227,0.1202,0.1202,0.1242,0.1247,0.1251,0.1298,0.1273,0.1275,0.1277,0.1359,0.136,0.1361,0,0,0,0,0,0,0.125,0.1244,0.1203,0.1225,0.1221,0.1217,0.1202,0.1202,0.1202,0.1221,0.1225,0.1202,0.1242,0.1248,0.1274,0.1299,0.1276,0.1278,0.1357,0.1359,0.136,0.1367,0,0,0,0,0,0,0.1251,0.1244,0.1241,0.1224,0.1219,0.1205,0.1201,0.1201,0.1199,0.12,0.1223,0.1229,0.1243,0.1271,0.1276,0.1302,0.128,0.1356,0.1358,0.136,0.1366,0.1369,0.1372,0,0,0,0,0,0.1254,0.1249,0.124,0.1235,0.1211,0.1206,0.1205,0.1204,0.1199,0.1205,0.1218,0.1228,0.1288,0.1273,0.1279,0.1306,0.1355,0.1357,0.136,0.1364,0.1368,0.1372,0,0,0,0,0,0,0.1284,0.1249,0.1239,0.1226,0.1219,0.1207,0.1213,0.1204,0.1215,0.1221,0.1233,0.124,0.1273,0.1287,0.127,0.1337,0.1327,0.133,0.1328,0.1332,0.1335,0.1404,0.1281,0,0,0,0,0,0.1284,0.1269,0.1245,0.1239,0.1234,0.1221,0.1219,0.1216,0.1219,0.1224,0.1236,0.1259,0.1286,0.1306,0.1327,0.1359,0.139,0.1384,0.1387,0.1389,0.1451,0.1503,0.1517,0.1369,0.1369,0.1369,0,0,0.1297,0.1276,0.1269,0.1245,0.1239,0.1255,0.1222,0.1222,0.1247,0.1231,0.1268,0.1265,0.1295,0.1331,0.1349,0.1348,0.1436,0.1392,0.1394,0.1456,0.1507,0.1522,0.1535,0.137,0.137,0.137,0,0,0.1328,0.1292,0.1299,0.1292,0.1281,0.1277,0.1277,0.1263,0.1267,0.1293,0.1289,0.1313,0.1342,0.1376,0.1397,0.1434,0.1443,0.1422,0.1503,0.155,0.1563,0.1575,0.1582,0.1595,0.1431,0.1431,0.1431,0,0.1354,0.1342,0.1305,0.1318,0.1319,0.1291,0.1313,0.1321,0.1321,0.1337,0.1317,0.1377,0.1383,0.1455,0.1468,0.1447,0.1457,0.1478,0.1555,0.1568,0.1581,0.1585,0.16,0.1431,0.1431,0.1431,0.1431,0,0.1388,0.1386,0.139,0.1396,0.14,0.1404,0.1406,0.1418,0.1413,0.1424,0.1472,0.1476,0.1524,0.1512,0.1508,0.1594,0.1563,0.1541,0.1546,0.1596,0.1596,0.1611,0.1432,0.1432,0.1432,0.1432,0,0,0.1426,0.1416,0.1421,0.1424,0.143,0.1432,0.1484,0.1513,0.1538,0.1562,0.1607,0.1658,0.1651,0.1678,0.1656,0.1706,0.1765,0.167,0.1671,0.1678,0.1843,0.169,0.1691,0.1745,0.1749,0.1752,0.1788,0,0.1466,0.1485,0.1482,0.152,0.1522,0.1523,0.1565,0.1596,0.1608,0.1643,0.1684,0.1716,0.1715,0.1713,0.1774,0.1761,0.1815,0.1758,0.1797,0.1799,0.1658,0.1708,0.1527,0.1534,0.1803,0.1805,0.1807,0,0.1503,0.15,0.1531,0.1543,0.1548,0.1589,0.1624,0.1654,0.1715,0.1721,0.1791,0.1799,0.189,0.1855,0.1953,0.1909,0.1911,0.1905,0.1905,0.1793,0.1677,0.1539,0.1551,0.1832,0.183,0.1828,0.1827,0,0.1516,0.1538,0.1554,0.1557,0.1579,0.1616,0.1642,0.1691,0.1713,0.1776,0.1804,0.1894,0.1932,0.1988,0.1993,0.1977,0.2066,0.2028,0.1907,0.1893,0.1771,0.174,0.2133,0.2133,0.2133,0.2133,0.2133,0,0.1535,0.1543,0.1561,0.157,0.1594,0.1619,0.1659,0.1694,0.1752,0.1785,0.185,0.1894,0.1974,0.2019,0.2026,0.2005,0.21,0.1958,0.1914,0.1757,0.1726,0.2023,0.201,0.2134,0.2134,0.2133,0.2133,0,0.152,0.1536,0.1542,0.1578,0.1601,0.161,0.1669,0.1695,0.1752,0.1802,0.1833,0.1926,0.1962,0.2004,0.2056,0.2022,0.2016,0.1985,0.177,0.17,0.1805,0.1792,0.1872,0.1867,0.1863,0.186,0.1857,0,0.1509,0.1519,0.1543,0.156,0.158,0.1605,0.1638,0.169,0.1705,0.1807,0.1829,0.1905,0.1913,0.1923,0.1848,0.1812,0.1923,0.1636,0.1591,0.1841,0.1789,0.1782,0.1775,0.1416,0.141,0.1405,0.1401,0,0.1501,0.1512,0.1535,0.1551,0.1588,0.1589,0.1634,0.1632,0.1684,0.174,0.1778,0.1806,0.177,0.1632,0.1572,0.1534,0.162,0.1528,0.1883,0.1489,0.1408,0.1358,0.1367,0.1356,0.1361,0.1364,0.1366,0.1368,0.1526,0.1507,0.1555,0.156,0.1583,0.1569,0.1548,0.157,0.1588,0.1576,0.1636,0.1583,0.1546,0.1331,0.1248,0.1165,0.1306,0.1255,0.1273,0.1296,0.1216,0.1131,0.101,0.1013,0.1015,0.1017,0.1018,0,0.1549,0.1538,0.1562,0.1554,0.1524,0.1572,0.1545,0.1488,0.1443,0.1411,0.1378,0.1186,0.106,0.1034,0.0816,0.077,0.079,0.0745,0.0781,0.0824,0.0863,0.0763,0.0437,0.0435,0.0434,0.0433,0,0,0.1563,0.1562,0.1543,0.1502,0.1498,0.1453,0.1411,0.133,0.1253,0.1124,0.1025,0.1004,0.1015,0.0736,0.066,0.0525,0.0684,0.0483,0.0947,0.1036,0.1074,0.1146,0.1038,0,0,0,0,0]},{"header":{"parameterUnit":"m.s-1","parameterCategory":2,"la1":30.2991,"la2":30.254,"lo1":-89.0895,"lo2":-89.0444,"dy":0.0017,"dx":0.0017,"nx":28,"ny":28,"refTime":"2024-03-12T09:00:00:Z","depth":"2","parameterNumber":3,"parameterNumberName":"V-component_of_CURRENTS"},"data":[0,0,0,0,0,0,0,0,0,0,0,0,0,0,0,0,0,0,0,0,0,0,0,0,0,0,0,0,0,0,0,0,0,0,0,0,0,0,0,0,0,0,0,0,0,0,0,0,0,0,0,0,0,0,0,0,0,0,0.0336,0.0336,0,0.0368,0.0368,0.0368,0.0376,0.0376,0.0376,0.0375,0.0392,0.0393,0.0393,0,0,0,0,0,0,0,0,0,0,0,0,0,0.0273,0.0274,0.0336,0.0336,0.0336,0.0367,0.0368,0.0368,0.0376,0.0376,0.0376,0.0375,0.0392,0.0393,0.0394,0,0,0,0,0,0,0,0,0,0,0,0,0,0.0302,0.0275,0.0335,0.0344,0.0346,0.0367,0.0368,0.0368,0.0376,0.0376,0.0375,0.0375,0.0392,0.0393,0.0394,0.0404,0,0,0.0396,0.0397,0,0,0,0,0,0,0,0,0.03,0.0304,0.0343,0.0344,0.0345,0.0368,0.0352,0.038,0.0376,0.0364,0.0375,0.0375,0.0383,0.0385,0.0391,0.0405,0.0405,0.0396,0.0397,0.0397,0.0398,0,0,0,0,0,0,0,0.0298,0.0302,0.0348,0.0343,0.0345,0.0344,0.0348,0.0357,0.0374,0.0365,0.0366,0.037,0.0384,0.039,0.0391,0.0406,0.0396,0.0397,0.0398,0.0398,0.0443,0.0444,0,0,0,0,0,0,0.0296,0.0301,0.0347,0.0349,0.0322,0.0346,0.035,0.036,0.0374,0.0376,0.037,0.0371,0.0389,0.039,0.0392,0.0416,0.0397,0.0398,0.0399,0.0442,0.0443,0.0444,0,0,0,0,0,0,0.0295,0.03,0.0345,0.0325,0.0331,0.0347,0.0359,0.0361,0.0369,0.0379,0.038,0.0376,0.0388,0.0391,0.0411,0.0416,0.0399,0.0399,0.0441,0.0443,0.0443,0.0457,0,0,0,0,0,0,0.0293,0.03,0.0304,0.0326,0.0332,0.0359,0.0359,0.0362,0.0372,0.0373,0.0384,0.0385,0.0388,0.041,0.0412,0.0417,0.04,0.0441,0.0442,0.0443,0.0456,0.0458,0.0461,0,0,0,0,0,0.0291,0.0294,0.0305,0.031,0.0339,0.0359,0.0363,0.0372,0.0373,0.0378,0.0392,0.0385,0.0419,0.0411,0.0413,0.0419,0.044,0.0442,0.0443,0.0455,0.0458,0.046,0,0,0,0,0,0,0.0261,0.0296,0.0308,0.032,0.0341,0.0361,0.0365,0.0374,0.0389,0.039,0.0397,0.04,0.042,0.042,0.0411,0.0436,0.0426,0.0429,0.0435,0.0438,0.044,0.0451,0.0401,0,0,0,0,0,0.026,0.0278,0.0307,0.0317,0.0328,0.0348,0.0356,0.0367,0.0384,0.039,0.0401,0.0413,0.0428,0.0433,0.0446,0.046,0.0457,0.0464,0.0466,0.0468,0.048,0.0488,0.0492,0.0449,0.0449,0.0449,0,0,0.025,0.0272,0.0281,0.0312,0.0328,0.0351,0.0352,0.0368,0.0387,0.039,0.0414,0.0424,0.0435,0.0454,0.0462,0.0454,0.0476,0.047,0.0472,0.0482,0.049,0.0494,0.0498,0.045,0.0449,0.0449,0,0,0.0246,0.0261,0.028,0.03,0.033,0.0347,0.0353,0.0381,0.0391,0.0418,0.0426,0.0444,0.0462,0.0475,0.0482,0.0506,0.0492,0.0504,0.0521,0.0529,0.0532,0.0535,0.052,0.0522,0.0501,0.0501,0.0501,0,0.0229,0.0266,0.0285,0.031,0.0329,0.0348,0.0372,0.0386,0.0417,0.0434,0.0427,0.0475,0.0475,0.0508,0.0513,0.0511,0.0507,0.0507,0.0531,0.0535,0.0538,0.0522,0.0523,0.0502,0.0501,0.0501,0.0501,0,0.0248,0.0276,0.0285,0.0331,0.0349,0.0371,0.04,0.0418,0.0433,0.0455,0.0492,0.0502,0.0532,0.0528,0.0526,0.0551,0.0537,0.0535,0.0522,0.0543,0.0524,0.0526,0.0503,0.0502,0.0502,0.0502,0,0,0.0216,0.0286,0.0291,0.0324,0.0365,0.0387,0.0414,0.0456,0.0483,0.0506,0.0545,0.0563,0.0574,0.0584,0.0583,0.0583,0.0585,0.0566,0.0566,0.0548,0.0586,0.0571,0.0571,0.0587,0.0588,0.0588,0.0558,0,0.0227,0.0283,0.0313,0.0364,0.0398,0.0425,0.0452,0.0488,0.0514,0.0554,0.0573,0.061,0.0593,0.0609,0.061,0.0604,0.0593,0.0592,0.0573,0.0572,0.0554,0.0575,0.0578,0.0552,0.056,0.056,0.056,0,0.0245,0.0283,0.0336,0.0402,0.0417,0.0447,0.0502,0.0531,0.0582,0.0598,0.0638,0.0661,0.0686,0.066,0.0657,0.0658,0.0624,0.0605,0.0603,0.059,0.0561,0.0537,0.0554,0.0563,0.0562,0.0562,0.0562,0,0.0237,0.0303,0.0349,0.0371,0.0439,0.0467,0.0502,0.0551,0.059,0.0637,0.0678,0.0701,0.0737,0.0705,0.0679,0.0668,0.0662,0.0641,0.0591,0.0588,0.0589,0.0586,0.0627,0.0627,0.0627,0.0627,0.0627,0,0.0249,0.0285,0.0353,0.0383,0.0436,0.0477,0.0539,0.0564,0.0626,0.0693,0.0711,0.0771,0.0754,0.076,0.0699,0.0659,0.0679,0.0602,0.0589,0.0592,0.0589,0.0602,0.06,0.0626,0.0626,0.0626,0.0626,0,0.024,0.0282,0.0345,0.0419,0.0441,0.0483,0.057,0.0623,0.0664,0.0753,0.0779,0.0839,0.0845,0.0805,0.0761,0.0704,0.0647,0.0618,0.0613,0.06,0.0554,0.0553,0.056,0.0559,0.0559,0.0558,0.0558,0,0.0246,0.0278,0.0368,0.0408,0.0446,0.0513,0.0569,0.063,0.0697,0.0804,0.086,0.0903,0.0948,0.0874,0.0772,0.0663,0.0646,0.0586,0.0568,0.0566,0.0552,0.0552,0.0551,0.0562,0.0562,0.0562,0.0562,0,0.0261,0.0294,0.0348,0.0424,0.0492,0.057,0.0658,0.0721,0.0812,0.0891,0.0995,0.1039,0.0987,0.0907,0.0762,0.0684,0.0604,0.0577,0.0596,0.0581,0.0567,0.0553,0.0553,0.056,0.056,0.056,0.056,0.056,0.0274,0.0312,0.0386,0.0454,0.053,0.0635,0.0705,0.0812,0.0926,0.1038,0.1065,0.1092,0.1012,0.0821,0.0715,0.0587,0.0596,0.0536,0.0537,0.0539,0.0547,0.0534,0.0519,0.0519,0.0519,0.0519,0.0519,0,0.0306,0.0349,0.0412,0.051,0.0591,0.063,0.0768,0.0838,0.098,0.1056,0.1114,0.0989,0.0925,0.0808,0.0628,0.0535,0.0526,0.049,0.0504,0.0507,0.051,0.0517,0.0481,0.048,0.048,0.048,0,0,0.0328,0.0389,0.042,0.0545,0.0611,0.0716,0.0797,0.0899,0.0968,0.1033,0.1027,0.1029,0.093,0.0779,0.067,0.0577,0.0556,0.0548,0.0591,0.0626,0.0629,0.055,0.0566,0,0,0,0,0]}],[{"header":{"parameterUnit":"m.s-1","parameterCategory":2,"la1":30.2991,"la2":30.254,"lo1":-89.0895,"lo2":-89.0444,"dy":0.0017,"dx":0.0017,"nx":28,"ny":28,"refTime":"2024-03-12T09:00:00:Z","depth":"4","parameterNumber":2,"parameterNumberName":"U-component_of_CURRENTS"},"data":[0,0,0,0,0,0,0,0,0,0,0,0,0,0,0,0,0,0,0,0,0,0,0,0,0,0,0,0,0,0,0,0,0,0,0,0,0,0,0,0,0,0,0,0,0,0,0,0,0,0,0,0,0,0,0,0,0,0,0.0754,0.0755,0,0.0793,0.0793,0.0793,0.0827,0.0827,0.0828,0.0828,0.0826,0.0825,0.0825,0,0,0,0,0,0,0,0,0,0,0,0,0,0.0719,0.0719,0.0754,0.0755,0.0755,0.0793,0.0793,0.0794,0.0827,0.0827,0.0828,0.0828,0.0826,0.0825,0.0825,0,0,0,0,0,0,0,0,0,0,0,0,0,0.0742,0.0719,0.0754,0.0777,0.0779,0.0793,0.0793,0.0794,0.0826,0.0827,0.0828,0.0828,0.0826,0.0825,0.0825,0.0807,0,0,0.0823,0.0822,0,0,0,0,0,0,0,0,0.0741,0.0744,0.0773,0.0775,0.0778,0.0806,0.078,0.0796,0.0826,0.0808,0.0828,0.0829,0.0815,0.0816,0.0821,0.0807,0.0807,0.0822,0.0822,0.0822,0.0821,0,0,0,0,0,0,0,0.0739,0.0742,0.0769,0.0774,0.0777,0.0788,0.0792,0.0783,0.0806,0.0809,0.0812,0.0817,0.0817,0.0822,0.0821,0.0807,0.0822,0.0822,0.0821,0.0821,0.0834,0.0835,0,0,0,0,0,0,0.0735,0.0741,0.0767,0.077,0.0762,0.0789,0.0793,0.0796,0.0807,0.081,0.0817,0.0819,0.0822,0.0822,0.0821,0.0849,0.0822,0.0821,0.0821,0.0833,0.0834,0.0835,0,0,0,0,0,0,0.0734,0.0737,0.0766,0.0757,0.0762,0.0788,0.0792,0.0796,0.0818,0.0813,0.0815,0.0835,0.0823,0.0822,0.0838,0.0847,0.0821,0.082,0.0832,0.0833,0.0834,0.0873,0,0,0,0,0,0,0.0733,0.0736,0.0745,0.0756,0.0762,0.0783,0.0791,0.0797,0.0819,0.0823,0.0829,0.0829,0.0823,0.084,0.0838,0.0846,0.082,0.0831,0.0833,0.0834,0.0871,0.0875,0.0879,0,0,0,0,0,0.0731,0.0737,0.0745,0.0749,0.077,0.0783,0.0787,0.0808,0.082,0.083,0.0844,0.083,0.0847,0.084,0.0837,0.0845,0.083,0.0832,0.0834,0.0869,0.0874,0.0879,0,0,0,0,0,0,0.0726,0.0741,0.0751,0.0761,0.0776,0.079,0.0802,0.0815,0.0835,0.0841,0.084,0.0841,0.0861,0.0847,0.084,0.0854,0.0835,0.0836,0.0863,0.0868,0.0872,0.0878,0.0819,0,0,0,0,0,0.0728,0.0737,0.0753,0.0762,0.077,0.0788,0.08,0.0813,0.0828,0.0839,0.0846,0.0852,0.0863,0.0862,0.0867,0.0869,0.0871,0.0872,0.0877,0.088,0.0884,0.0915,0.0923,0.084,0.084,0.084,0,0,0.073,0.0738,0.0745,0.0762,0.0775,0.0786,0.0797,0.0815,0.0831,0.0832,0.0859,0.087,0.087,0.0884,0.0889,0.0874,0.0903,0.0882,0.0886,0.0888,0.0918,0.0926,0.0933,0.0842,0.0841,0.0841,0,0,0.0728,0.0743,0.0748,0.0762,0.0783,0.0793,0.0801,0.0823,0.0842,0.0865,0.0877,0.09,0.0904,0.0913,0.0915,0.0942,0.0932,0.0939,0.0956,0.0987,0.0994,0.1,0.1006,0.1012,0.0933,0.0933,0.0933,0,0.0732,0.0738,0.0753,0.0761,0.0773,0.0797,0.0805,0.0826,0.0854,0.0871,0.0878,0.0922,0.0919,0.0946,0.0958,0.0952,0.0962,0.0937,0.0993,0.0999,0.1005,0.1009,0.1016,0.0935,0.0935,0.0934,0.0934,0,0.0732,0.0743,0.0747,0.0764,0.0777,0.079,0.0815,0.0838,0.0863,0.0887,0.0933,0.0951,0.0978,0.0978,0.0975,0.1014,0.1005,0.1003,0.0981,0.1016,0.1018,0.1024,0.0938,0.0937,0.0937,0.0936,0,0,0.0725,0.0744,0.0748,0.075,0.0781,0.0785,0.0817,0.0847,0.0869,0.0916,0.0953,0.0987,0.1015,0.1021,0.103,0.1049,0.1093,0.1043,0.1044,0.105,0.115,0.1031,0.1026,0.1108,0.1109,0.111,0.1132,0,0.0723,0.0731,0.0746,0.0754,0.0755,0.0787,0.081,0.0844,0.0879,0.0922,0.0972,0.1011,0.1027,0.1047,0.1078,0.1096,0.1114,0.1087,0.1114,0.1114,0.1006,0.1031,0.1115,0.1136,0.1138,0.1139,0.1139,0,0.0713,0.072,0.0725,0.0737,0.0742,0.076,0.0794,0.0819,0.0887,0.0919,0.0986,0.1029,0.1092,0.1091,0.1161,0.1148,0.1154,0.116,0.1161,0.1041,0.1007,0.1096,0.1151,0.115,0.1149,0.1148,0.1148,0,0.0677,0.0699,0.0698,0.0706,0.0731,0.0748,0.0773,0.0826,0.0849,0.0929,0.0965,0.105,0.1104,0.1145,0.118,0.1178,0.1236,0.1231,0.1128,0.1119,0.1205,0.1198,0.1269,0.1269,0.1269,0.1268,0.1268,0,0.0649,0.065,0.0687,0.0683,0.0691,0.0725,0.0748,0.0783,0.0849,0.0878,0.0973,0.1015,0.1125,0.1176,0.1191,0.1178,0.1254,0.1132,0.112,0.1218,0.1212,0.1208,0.1201,0.1269,0.1269,0.1269,0.1269,0,0.0594,0.0619,0.0611,0.0647,0.0666,0.0669,0.0729,0.0748,0.082,0.0866,0.0899,0.1013,0.1075,0.1149,0.1207,0.1179,0.1176,0.1147,0.1238,0.123,0.1036,0.103,0.1036,0.1032,0.1028,0.1026,0.1023,0,0.0564,0.0556,0.0577,0.0577,0.0597,0.0626,0.0651,0.0723,0.0747,0.0846,0.0863,0.0961,0.1026,0.1033,0.11,0.1116,0.11,0.1086,0.1068,0.1026,0.1014,0.1014,0.1013,0.1018,0.1017,0.1016,0.1015,0,0.0506,0.0515,0.051,0.0512,0.053,0.0547,0.0595,0.0607,0.0688,0.0764,0.081,0.085,0.0912,0.0969,0.0989,0.0996,0.1091,0.1051,0.1058,0.1041,0.1004,0.0996,0.0999,0.1004,0.1005,0.1006,0.1007,0,0.0469,0.0445,0.0444,0.0438,0.0462,0.047,0.0498,0.0542,0.0579,0.0696,0.0704,0.0807,0.09,0.0903,0.0917,0.092,0.0904,0.0867,0.0883,0.0897,0.0839,0.0772,0.0688,0,0,0,0,0,0.0434,0.0404,0.0381,0.037,0.0395,0.0414,0.0464,0.0499,0.0586,0.0591,0.0646,0.0694,0.0733,0.0784,0.076,0.0836,0.0898,0.08,0.0862,0.0939,0.0952,0.0896,0,0,0,0,0,0,0.0402,0.0387,0.0356,0.033,0.0323,0.0348,0.0378,0.043,0.0441,0.0533,0.057,0.0629,0.0692,0.075,0.0747,0.0756,0.077,0.0855,0.0852,0.0931,0.0943,0.0954,0.0901,0,0,0,0,0]},{"header":{"parameterUnit":"m.s-1","parameterCategory":2,"la1":30.2991,"la2":30.254,"lo1":-89.0895,"lo2":-89.0444,"dy":0.0017,"dx":0.0017,"nx":28,"ny":28,"refTime":"2024-03-12T09:00:00:Z","depth":"4","parameterNumber":3,"parameterNumberName":"V-component_of_CURRENTS"},"data":[0,0,0,0,0,0,0,0,0,0,0,0,0,0,0,0,0,0,0,0,0,0,0,0,0,0,0,0,0,0,0,0,0,0,0,0,0,0,0,0,0,0,0,0,0,0,0,0,0,0,0,0,0,0,0,0,0,0,0.0245,0.0246,0,0.0275,0.0275,0.0276,0.0288,0.0288,0.0288,0.0288,0.031,0.0311,0.0311,0,0,0,0,0,0,0,0,0,0,0,0,0,0.0199,0.02,0.0245,0.0246,0.0246,0.0275,0.0275,0.0276,0.0288,0.0288,0.0288,0.0288,0.031,0.0311,0.0311,0,0,0,0,0,0,0,0,0,0,0,0,0,0.0223,0.02,0.0245,0.0256,0.0257,0.0275,0.0275,0.0276,0.0288,0.0288,0.0288,0.0288,0.031,0.0311,0.0311,0.0318,0,0,0.0314,0.0315,0,0,0,0,0,0,0,0,0.0221,0.0224,0.0254,0.0255,0.0257,0.0278,0.0267,0.029,0.0288,0.0276,0.0288,0.0288,0.0299,0.0301,0.0306,0.0319,0.032,0.0314,0.0315,0.0315,0.0316,0,0,0,0,0,0,0,0.022,0.0223,0.0257,0.0255,0.0256,0.0259,0.0263,0.0272,0.0287,0.0277,0.0278,0.0282,0.03,0.0305,0.0307,0.032,0.0314,0.0315,0.0316,0.0316,0.0351,0.0351,0,0,0,0,0,0,0.0217,0.0222,0.0256,0.0258,0.0239,0.026,0.0264,0.0271,0.0287,0.029,0.0282,0.0283,0.0304,0.0306,0.0308,0.0324,0.0315,0.0316,0.0317,0.035,0.0351,0.0351,0,0,0,0,0,0,0.0216,0.022,0.0255,0.024,0.0245,0.0261,0.0269,0.0272,0.0282,0.0291,0.0293,0.029,0.0304,0.0306,0.0325,0.0325,0.0317,0.0317,0.035,0.035,0.0351,0.0352,0,0,0,0,0,0,0.0214,0.0219,0.0223,0.024,0.0246,0.0265,0.0269,0.0272,0.0284,0.0285,0.0299,0.03,0.0304,0.0323,0.0326,0.0326,0.0318,0.0349,0.035,0.0351,0.0351,0.0353,0.0353,0,0,0,0,0,0.0213,0.0212,0.0223,0.0228,0.0251,0.0265,0.0268,0.0279,0.0285,0.0288,0.0304,0.03,0.0329,0.0325,0.0327,0.0327,0.0349,0.035,0.0351,0.0351,0.0352,0.0353,0,0,0,0,0,0,0.0187,0.0214,0.0227,0.0233,0.025,0.0267,0.0269,0.0282,0.0297,0.0299,0.031,0.0313,0.0329,0.033,0.0325,0.034,0.0336,0.0338,0.0336,0.0337,0.0338,0.0324,0.0319,0,0,0,0,0,0.0186,0.0196,0.0221,0.0226,0.0235,0.0256,0.0263,0.0274,0.0289,0.0296,0.0309,0.0321,0.0333,0.0337,0.0349,0.0358,0.0349,0.0358,0.0359,0.036,0.0351,0.0346,0.0345,0.0354,0.0354,0.0354,0,0,0.0177,0.0193,0.0198,0.0222,0.0236,0.0246,0.026,0.0271,0.028,0.0296,0.0311,0.0328,0.0338,0.0351,0.0357,0.0351,0.0354,0.0361,0.0362,0.0352,0.0347,0.0346,0.0345,0.0354,0.0354,0.0354,0,0,0.016,0.0179,0.0184,0.02,0.0224,0.0238,0.0243,0.0268,0.0279,0.03,0.0314,0.033,0.035,0.0355,0.036,0.0372,0.0363,0.0378,0.0367,0.0363,0.0361,0.036,0.0348,0.0346,0.0374,0.0374,0.0374,0,0.0145,0.0165,0.0186,0.0195,0.021,0.0235,0.0245,0.0256,0.0284,0.0296,0.0303,0.034,0.0348,0.036,0.0363,0.0372,0.0368,0.0361,0.0363,0.0361,0.036,0.0348,0.0345,0.0374,0.0374,0.0374,0.0374,0,0.0139,0.0157,0.0159,0.0185,0.0198,0.0213,0.0235,0.025,0.0271,0.0286,0.0312,0.033,0.0351,0.0355,0.0361,0.0361,0.036,0.0368,0.0357,0.0359,0.0346,0.0343,0.0374,0.0374,0.0374,0.0374,0,0,0.0107,0.0148,0.0151,0.0178,0.0201,0.022,0.0225,0.0251,0.0271,0.0286,0.0312,0.0323,0.0339,0.0346,0.0359,0.035,0.0337,0.0352,0.0352,0.0334,0.0322,0.0317,0.0314,0.0348,0.0347,0.0347,0.0316,0,0.0102,0.013,0.0145,0.0177,0.0202,0.0223,0.0234,0.0256,0.0278,0.0306,0.0314,0.0346,0.0333,0.0359,0.0342,0.0353,0.0331,0.0344,0.0327,0.0326,0.0317,0.0311,0.0346,0.0314,0.0313,0.0313,0.0313,0,0.0102,0.0127,0.0157,0.0209,0.022,0.0235,0.0277,0.0292,0.0316,0.0333,0.0345,0.0363,0.0362,0.0357,0.0333,0.0345,0.0324,0.0317,0.0316,0.0306,0.0316,0.0312,0.0308,0.0308,0.0308,0.0309,0.0309,0,0.011,0.0143,0.0177,0.0193,0.0238,0.0256,0.028,0.0305,0.0337,0.0359,0.0388,0.0378,0.0403,0.0364,0.0343,0.0342,0.0314,0.0315,0.028,0.028,0.0292,0.0294,0.0277,0.0277,0.0277,0.0277,0.0278,0,0.0121,0.0151,0.0189,0.0215,0.0261,0.028,0.0332,0.0346,0.0382,0.0424,0.0412,0.0438,0.0408,0.0394,0.0348,0.0307,0.0314,0.0269,0.027,0.0294,0.0297,0.029,0.0292,0.0276,0.0277,0.0277,0.0277,0,0.0141,0.016,0.0211,0.0258,0.0275,0.0314,0.038,0.0419,0.0436,0.049,0.0502,0.0498,0.0472,0.0428,0.038,0.0333,0.0285,0.0264,0.0288,0.0293,0.0248,0.025,0.0218,0.0217,0.0217,0.0216,0.0216,0,0.016,0.0184,0.0249,0.0282,0.0308,0.0367,0.041,0.0448,0.0487,0.0523,0.0549,0.0542,0.0527,0.0448,0.039,0.0296,0.0279,0.0247,0.0238,0.0236,0.0241,0.0244,0.0247,0.0215,0.0215,0.0215,0.0215,0,0.0191,0.0211,0.0255,0.032,0.0372,0.0438,0.0496,0.0526,0.0566,0.0588,0.0591,0.0552,0.0522,0.0449,0.0383,0.0312,0.0266,0.0243,0.0243,0.0234,0.0234,0.0239,0.0242,0.0214,0.0214,0.0214,0.0214,0,0.0216,0.0247,0.0295,0.0357,0.0422,0.0481,0.0515,0.0557,0.0594,0.0618,0.0617,0.0573,0.0555,0.0458,0.0393,0.0329,0.0304,0.0271,0.0269,0.027,0.0293,0.0301,0.0296,0,0,0,0,0,0.0238,0.0267,0.0324,0.0389,0.0456,0.0491,0.0559,0.0585,0.0618,0.0624,0.0619,0.0582,0.0492,0.0454,0.0388,0.0378,0.029,0.0296,0.0251,0.0206,0.0208,0.0225,0,0,0,0,0,0,0.0248,0.0295,0.0323,0.0404,0.0449,0.0522,0.0565,0.0588,0.0588,0.0604,0.0558,0.0549,0.0463,0.0525,0.0379,0.0362,0.0321,0.0261,0.0259,0.0205,0.0207,0.0208,0.0226,0,0,0,0,0]}]]